Погода в Орше

Погода в Орше : погода сейчас, прогноз погоды и архив. Всё, что Вы хотите узнать о погоде в Орше!

Хотите узнать прогноз погоды в Орше? Тогда Вам сюда: Погода в Орше

Поиск расширенной информации на нашем сайте:

Другие новости

Новости СМИ2

Главная страница сайта

Новости сайта

03.07.2017

Напоминаем, что на нашем специализированном сайте Метеоцентр.Азия вы можете получить высокодетализированные автоматические прогнозы погоды по пунктам России, СНГ и мира в авиационном формате (включающие направление и скорость ветра, видимость, явления погоды, количество и форму облачности, нижнюю и верхнюю границу облачности).


Погода в Орше - сегодня

Время (UTC), дата Ветер
(°,м/с) 
Видим.   Явления Облачность Т
(°С)
Тd
(°С)
f(%) Тe
(°С)
Pmin
(гПа)
dP
(гПа)
Po
(мм)
O2
(г/м3)
Тmin Tmax R s Состояние
почвы
00 19.09.17 230 (ЮЗ) 7-11{16}  10 км  {дождь}  9/9 800 м 
[Sc]
+9.3 +7.8 90 +7  1004.3  2.4  737  286      0.1     
03 19.09.17 250 (З) 7-11{16}  10 км    10/10 660 м кучево-дожд. 
[Cb cap]
+10.8 +9 89 +9  1008.3  3.9  740  285      0.3     
06 19.09.17 250 (З) 5{14}  10 км    8/8 330 м 
[St]
+10.5 +6.7 77 +9  1012  3.6  742  287  +9.2    0.3     
09 19.09.17 260 (З) 5{12}  10 км    8/8 840 м 
[Sc]
+13.1 +7.8 70 +12  1014.3  2.5  744  285           
12 19.09.17 270 (З) 4{11}  10 км    8/8 870 м средняя 
[Sc|Ac trans]
+15 +7.8 62 +15  1016.1  1.8  746  283           
15 19.09.17 250 (З) 3{11}  10 км    4/3 1000 м верхняя 
[Sc|Ci fib]
+15 +7.8 62 +15  1017.4  1.3  747  284           
18 19.09.17 140 (ЮВ) 10 км    ясно 
+9.3 +7.6 89 +10  1019.1  1.3  748  290    +16.3       
21 19.09.17 тихо ()   10 км    ясно 
+7.7 +5.9 88 +8  1020.2  0.9  748  292           
00 20.09.17 140 (ЮВ) 10 км    ясно 
+7.6 +6.2 91 +9  1020.5  0.3  748  292           
03 20.09.17 170 (Ю) 8000 м  дымка  4/0 средняя 
[Ac trans]
+7.4 +6.7 95 +8  1020.9  0.4  749  293           
06 20.09.17 130 (ЮВ) 8000 м  дымка  9/0 
[Frnb]
+9.4 +8.4 93 +10  1021.3  0.5  749  290  +6.7         
09 20.09.17 090 (В) 10 км  {ливн. осадки}  9/9 630 м кучево-дожд. 
[Cb cap]
+12.1 +9.8 86 +13  1021.2  0.2  749  287      0.0     
12 20.09.17 120 (ЮВ) 10 км  {ливн. осадки}  9/0 средняя 
[Ac As]
+14.9 +9.5 70 +17  1020.8  -0.3  749  284           
15 20.09.17 080 (В) 10 км    8/0 средняя 
[Ac As]
+15.4 +9.2 66 +16  1019.8  -0.9  748  284      0.0     
18 20.09.17 080 (В) 10 км    8/3 1000 м средняя 
[Sc|Ac trans]
+12 +9 82 +12  1020.6  0.5  749  287    +16  0.0     
21 20.09.17 090 (В) 10 км    8/0 средняя 
[Ac trans]
+11.1 +8.9 86 +10  1020.5  -0.2  749  288           
00 21.09.17 070 (В) 10 км    9/5 1000 м средняя 
[Sc|Ac trans]
+10.8 +9.2 90 +11  1020.7  0.2  749  289           
03 21.09.17 060 (СВ) 10 км    8/3 1000 м средняя 
[Sc|Ac trans]
+11.1 +9.7 91 +12  1019.4  -1.1  748  288           
06 21.09.17 080 (В) 10 км    9/5 600 м средняя 
[Sc|Ac trans]
+11.7 +9.5 86 +12  1019.8  0.3  748  287  +10.2         
09 21.09.17 090 (В) 8-11{19}  10 км  {ливн. осадки}  10/6 930 м кучево-дожд., средняя 
[Cb cap|Ac trans]
+12.8 +9.9 83 +12  1016.9  -2.7  746  285         
12 21.09.17 080 (В) 6{15}  10 км  {ливн. осадки}  8/3 600 м средняя, верхняя 
[Sc|Ac trans|Ci fib]
+16.7 +10.5 67 +18  1016.1  -0.5  746  281           
15 21.09.17 080 (В) 5{12}  10 км    8/6 600 м кучево-дожд., средняя 
[Cb cap|Ac trans]
+17.4 +10.7 65 +19  1015.9  -0.2  746  280      0.7     
18 21.09.17 090 (В) 7-10{13}  10 км    6/0 средняя 
[Ac trans]
+15.5 +10.9 74 +17  1016.3  0.3  746  282    +18  0.7     
21 21.09.17 100 (В) 7-11{13}  10 км    ясно 
+15.5 +9.9 69 +16  1017.7  1.4  747  283           
00 22.09.17 080 (В) 7-10{12}  10 км    ясно 
+14.2 +8.9 70 +13  1018.9  1.1  748  285           
Время (UTC), дата Ветер
(°,м/с) 
Видим.   Явления Облачность Т
(°С)
Тd
(°С)
f(%) Тe
(°С)
Pmin
(гПа)
dP
(гПа)
Po
(мм)
O2
(г/м3)
Тmin Tmax R s Состояние
почвы

Для получения пояснительной информации подведите курсор к названию столбца.

ПОГОДА в Орше - архив

Всё, что Вы хотите узнать о погоде в Орше - удобно и подробно!

Выберите нужную дату (начиная с 1 января 2015* года) и нажмите кнопку "Найти".
Будут отображены архивные сводки погоды по пункту Орша, начиная с указанной даты.


Отображать данные в формате CSV (для использования в таблицах Excel)


Внимание! Наш архив погоды предназначен исключительно для личного некоммерческого использования в познавательных целях. Если Вам необходимы официальные справки о состоянии погоды (для производственных, юридических, коммерческих и т.п. целей), обращайтесь в органы Росгидромета.

*Примечание: данная дата относится к архиву по метеостанциям СССР (Россия, СНГ, Балтия).
Архив по метеостанциям Зарубежной Европы и Азии (кроме Китая) хранится 10 дней, по другим регионам земного шара (Китай, Африка, Америка, Австралия, Океания) - 1 день.

Орша - район местоположения метеостанции


Название, широта, долгота, высота метеостанции:
Орша 55°ш. 30.4°д. 185 м над ур. моря [Беларусь]

Дополнительная информация

В oтличие oт бoльшинства пoгoдных сайтoв мы публикуем пoдрoбную метеoинфoрмацию в детальнoм прoфессиoнальнoм фoрмате.

Характеристики температуры и влажнoсти вoздуха измеряются на высoте 2 м в тени вдали oт зданий и деревьев.
Скoрoсть ветра измеряется на высoте 10 м (на урoвне рoста челoвека скoрoсть ветра ниже в 1.5-2 раза). Если метеoстанция нахoдится в гoрoде или в лесу, тo скoрoсть ветра занижена на 2-4 м/с пo сравнению с oткрытым местoм. Скoрoсть ветра над акватoриями крупных рек и oзёр, а также на вершинах хoлмoв на 2-5 м/с выше, чем в oбычных услoвиях.
Атмoсфернoе давление в разных тoчках местнoсти мoжет значительнo oтличаться oт давления на метеoстанции, в зависимoсти oт услoвий рельефа (при пoдъёме на 10 м давление пoнижается примернo на 1 мм рт.ст.).